Powrót do katalogu

GHOST-4

AktywnyNaukaSSO
NORAD 59133·PAYLOAD·🇺🇸 United States

Wystrzelony Mar 4, 2024 z Vandenberg Space Force Base

Loading…

Następne Przeloty (najbliższe 24 godziny)

TLE

ŚwieżeSource: Space-Track

Epoka: Sep 14, 2026, 09:26 UTC

1 59133U 24043AM  26257.39365006  .00012252  00000-0  25686-3 0  9990
2 59133  97.5730  45.9673 0006433 251.4943 108.5607 15.45538682141305

Śledź GHOST-4 w czasie rzeczywistym z AllMySat

Download on the App Store